Time,TemperatureF,DewpointF,PressureIn,WindDirection,WindDirectionDegrees,WindSpeedMPH,WindSpeedGustMPH,Humidity,HourlyPrecipIn,Conditions,Clouds,dailyrainin,SoftwareType,DateUTC
2013-02-28 00:01:00,42.0,41.0,30.26,ENE,64,0.0,3.0,98,0.00,,,-99.99,,2013-02-28 08:01:00,
2013-02-28 00:11:00,42.0,41.0,30.26,ENE,64,0.0,3.0,98,0.00,,,-99.99,,2013-02-28 08:11:00,
2013-02-28 00:21:00,42.0,41.0,30.24,ENE,64,0.0,3.0,98,0.00,,,0.00,,2013-02-28 08:21:00,
2013-02-28 00:31:00,42.0,41.0,30.25,ENE,64,0.0,3.0,98,0.00,,,0.00,,2013-02-28 08:31:00,
2013-02-28 00:41:00,42.0,41.0,30.25,ENE,64,0.0,3.0,98,0.00,,,0.00,,2013-02-28 08:41:00,
2013-02-28 00:52:00,42.0,41.0,30.25,ENE,64,0.0,2.0,98,0.00,,,0.00,,2013-02-28 08:52:00,
2013-02-28 01:02:00,42.0,41.0,30.24,ENE,64,1.0,3.0,98,0.00,,,0.00,,2013-02-28 09:02:00,
2013-02-28 01:11:00,42.0,41.0,30.24,ENE,64,1.0,3.0,98,0.00,,,0.00,,2013-02-28 09:11:00,
2013-02-28 01:21:00,42.0,41.0,30.25,ENE,64,2.0,4.0,98,0.00,,,0.00,,2013-02-28 09:21:00,
2013-02-28 01:31:00,42.0,41.0,30.24,ENE,64,1.0,3.0,98,0.00,,,0.00,,2013-02-28 09:31:00,
2013-02-28 01:41:00,42.0,41.0,30.24,ENE,64,1.0,3.0,98,0.00,,,0.00,,2013-02-28 09:41:00,
2013-02-28 01:52:00,42.0,41.0,30.23,ENE,64,0.0,3.0,98,0.00,,,0.00,,2013-02-28 09:52:00,
2013-02-28 02:01:00,42.0,41.0,30.22,ENE,64,1.0,3.0,98,0.00,,,0.00,,2013-02-28 10:01:00,
2013-02-28 02:11:00,42.0,41.0,30.22,ENE,64,1.0,3.0,98,0.00,,,0.00,,2013-02-28 10:11:00,
2013-02-28 02:21:00,42.0,41.0,30.23,ENE,62,2.0,5.0,97,0.00,,,0.00,,2013-02-28 10:21:00,
2013-02-28 02:31:00,42.0,41.0,30.22,ENE,62,0.0,3.0,97,0.00,,,0.00,,2013-02-28 10:31:00,
2013-02-28 02:41:00,42.0,41.0,30.22,ENE,62,0.0,3.0,97,0.00,,,0.00,,2013-02-28 10:41:00,
2013-02-28 02:52:00,42.0,41.0,30.22,ENE,63,0.0,2.0,98,0.00,,,0.00,,2013-02-28 10:52:00,
2013-02-28 03:01:00,42.0,41.0,30.22,ENE,63,0.0,0.0,97,0.00,,,0.00,,2013-02-28 11:01:00,
2013-02-28 03:11:00,42.0,41.0,30.22,ENE,63,0.0,0.0,97,0.00,,,0.00,,2013-02-28 11:11:00,
2013-02-28 03:21:00,42.0,41.0,30.22,ENE,63,0.0,0.0,98,0.00,,,0.00,,2013-02-28 11:21:00,
2013-02-28 03:31:00,42.0,41.0,30.22,ENE,63,0.0,0.0,98,0.00,,,0.00,,2013-02-28 11:31:00,
2013-02-28 03:41:00,42.0,41.0,30.22,ENE,63,0.0,0.0,98,0.00,,,0.00,,2013-02-28 11:41:00,
2013-02-28 03:52:00,42.0,41.0,30.21,ENE,63,0.0,0.0,98,0.00,,,0.00,,2013-02-28 11:52:00,
2013-02-28 04:01:00,42.0,41.0,30.22,ENE,63,0.0,0.0,98,0.00,,,0.00,,2013-02-28 12:01:00,
2013-02-28 04:11:00,42.0,41.0,30.22,ENE,63,0.0,0.0,98,0.00,,,0.00,,2013-02-28 12:11:00,
2013-02-28 04:21:00,42.0,41.0,30.22,ENE,63,0.0,0.0,98,0.00,,,0.00,,2013-02-28 12:21:00,
2013-02-28 04:31:00,42.0,41.0,30.20,ENE,63,0.0,0.0,98,0.00,,,0.00,,2013-02-28 12:31:00,
2013-02-28 04:42:00,42.0,41.0,30.20,ENE,63,0.0,0.0,98,0.00,,,0.00,,2013-02-28 12:42:00,
2013-02-28 04:52:00,42.0,41.0,30.20,ENE,63,0.0,2.0,98,0.00,,,0.00,,2013-02-28 12:52:00,
2013-02-28 05:01:00,42.0,41.0,30.21,ENE,63,0.0,0.0,98,0.00,,,0.00,,2013-02-28 13:01:00,
2013-02-28 05:11:00,42.0,41.0,30.21,ENE,63,0.0,1.0,98,0.00,,,0.00,,2013-02-28 13:11:00,
2013-02-28 05:21:00,42.0,41.0,30.21,ENE,63,0.0,1.0,98,0.00,,,0.00,,2013-02-28 13:21:00,
2013-02-28 05:31:00,42.0,41.0,30.20,ENE,63,0.0,0.0,98,0.00,,,0.00,,2013-02-28 13:31:00,
2013-02-28 05:41:00,42.0,41.0,30.20,ENE,63,0.0,0.0,98,0.00,,,0.00,,2013-02-28 13:41:00,
2013-02-28 05:52:00,42.0,42.0,30.19,ENE,63,0.0,0.0,99,0.00,,,0.00,,2013-02-28 13:52:00,
2013-02-28 06:01:00,41.0,41.0,30.19,ENE,63,0.0,0.0,99,0.00,,,0.00,,2013-02-28 14:01:00,
2013-02-28 06:11:00,41.0,40.0,30.19,ENE,63,0.0,0.0,98,0.00,,,0.00,,2013-02-28 14:11:00,
2013-02-28 06:21:00,41.0,40.0,30.19,ENE,63,0.0,0.0,98,0.00,,,0.00,,2013-02-28 14:21:00,
2013-02-28 06:31:00,41.0,40.0,30.19,ENE,62,0.0,0.0,98,0.00,,,0.00,,2013-02-28 14:31:00,
2013-02-28 06:41:00,41.0,41.0,30.19,ENE,63,0.0,1.0,99,0.00,,,0.00,,2013-02-28 14:41:00,
2013-02-28 06:52:00,41.0,41.0,30.19,ENE,63,0.0,1.0,99,0.00,,,0.00,,2013-02-28 14:52:00,
2013-02-28 07:01:00,41.0,40.0,30.19,ENE,63,0.0,0.0,98,0.00,,,0.00,,2013-02-28 15:01:00,
2013-02-28 07:11:00,41.0,40.0,30.19,ENE,63,0.0,0.0,98,0.00,,,0.00,,2013-02-28 15:11:00,
2013-02-28 07:21:00,41.0,40.0,30.18,ENE,63,0.0,0.0,98,0.00,,,0.00,,2013-02-28 15:21:00,
2013-02-28 07:31:00,42.0,41.0,30.17,ENE,62,0.0,2.0,98,0.00,,,0.00,,2013-02-28 15:31:00,
2013-02-28 07:41:00,42.0,41.0,30.17,ENE,62,0.0,2.0,98,0.00,,,0.00,,2013-02-28 15:41:00,
2013-02-28 07:52:00,42.0,41.0,30.17,ENE,63,0.0,3.0,98,0.00,,,0.00,,2013-02-28 15:52:00,
2013-02-28 08:01:00,42.0,42.0,30.17,ENE,63,0.0,1.0,99,0.00,,,0.00,,2013-02-28 16:01:00,
2013-02-28 08:11:00,42.0,42.0,30.17,ENE,63,0.0,1.0,99,0.00,,,0.00,,2013-02-28 16:11:00,
2013-02-28 08:21:00,42.0,41.0,30.16,ENE,63,0.0,0.0,98,0.00,,,0.00,,2013-02-28 16:21:00,
2013-02-28 08:31:00,42.0,41.0,30.17,ENE,63,0.0,0.0,98,0.00,,,0.00,,2013-02-28 16:31:00,
2013-02-28 08:42:00,42.0,41.0,30.17,ENE,63,0.0,0.0,98,0.00,,,0.00,,2013-02-28 16:42:00,
2013-02-28 08:52:00,42.0,41.0,30.18,ENE,63,0.0,0.0,98,0.00,,,0.00,,2013-02-28 16:52:00,
2013-02-28 09:01:00,42.0,41.0,30.18,ENE,63,0.0,0.0,98,0.00,,,0.00,,2013-02-28 17:01:00,
2013-02-28 09:11:00,43.0,42.0,30.18,ENE,63,0.0,0.0,98,0.00,,,0.00,,2013-02-28 17:11:00,
2013-02-28 09:21:00,43.0,42.0,30.18,ENE,63,0.0,0.0,98,0.00,,,0.00,,2013-02-28 17:21:00,
2013-02-28 09:31:00,43.0,43.0,30.19,ENE,63,0.0,0.0,99,0.00,,,0.00,,2013-02-28 17:31:00,
2013-02-28 09:41:00,43.0,43.0,30.19,ENE,63,0.0,0.0,99,0.00,,,0.00,,2013-02-28 17:41:00,
2013-02-28 09:52:00,43.0,42.0,30.19,ENE,63,0.0,0.0,98,0.00,,,0.00,,2013-02-28 17:52:00,
2013-02-28 10:01:00,43.0,42.0,30.17,ENE,63,0.0,2.0,98,0.00,,,0.00,,2013-02-28 18:01:00,
2013-02-28 10:11:00,43.0,42.0,30.17,ENE,63,0.0,2.0,98,0.00,,,0.00,,2013-02-28 18:11:00,
2013-02-28 10:21:00,44.0,43.0,30.19,ENE,63,1.0,4.0,98,0.00,,,0.00,,2013-02-28 18:21:00,
2013-02-28 10:31:00,44.0,44.0,30.18,ENE,63,0.0,4.0,99,0.00,,,0.00,,2013-02-28 18:31:00,
2013-02-28 10:41:00,44.0,44.0,30.18,ENE,63,0.0,4.0,99,0.00,,,0.00,,2013-02-28 18:41:00,
2013-02-28 10:52:00,45.0,45.0,30.19,ENE,63,0.0,0.0,99,0.00,,,0.00,,2013-02-28 18:52:00,
2013-02-28 11:01:00,45.0,45.0,30.19,ENE,63,0.0,0.0,99,0.00,,,0.00,,2013-02-28 19:01:00,
2013-02-28 11:11:00,45.0,45.0,30.19,ENE,63,0.0,0.0,99,0.00,,,0.00,,2013-02-28 19:11:00,
2013-02-28 11:21:00,45.0,45.0,30.19,ENE,63,0.0,0.0,99,0.00,,,0.00,,2013-02-28 19:21:00,
2013-02-28 11:31:00,46.0,46.0,30.20,ENE,63,0.0,3.0,99,0.00,,,0.00,,2013-02-28 19:31:00,
2013-02-28 11:41:00,46.0,46.0,30.20,ENE,63,0.0,3.0,99,0.00,,,0.00,,2013-02-28 19:41:00,
2013-02-28 11:52:00,46.0,46.0,30.21,ENE,63,0.0,1.0,99,0.00,,,0.00,,2013-02-28 19:52:00,
2013-02-28 12:01:00,46.0,46.0,30.20,ENE,63,0.0,2.0,99,0.00,,,0.00,,2013-02-28 20:01:00,
2013-02-28 12:11:00,46.0,46.0,30.20,ENE,63,0.0,2.0,99,0.00,,,0.00,,2013-02-28 20:11:00,
2013-02-28 12:21:00,46.0,46.0,30.21,ENE,63,0.0,3.0,99,0.00,,,0.00,,2013-02-28 20:21:00,
2013-02-28 12:31:00,47.0,47.0,30.22,ENE,63,0.0,4.0,99,0.00,,,0.00,,2013-02-28 20:31:00,
2013-02-28 12:41:00,47.0,47.0,30.22,ENE,63,0.0,4.0,99,0.00,,,0.00,,2013-02-28 20:41:00,
2013-02-28 12:52:00,47.0,47.0,30.21,SE,145,0.0,4.0,99,0.00,,,0.00,,2013-02-28 20:52:00,
2013-02-28 13:01:00,47.0,47.0,30.21,SE,146,0.0,2.0,100,0.00,,,0.00,,2013-02-28 21:01:00,
2013-02-28 13:11:00,47.0,47.0,30.21,SE,146,0.0,2.0,100,0.00,,,0.00,,2013-02-28 21:11:00,
2013-02-28 13:22:00,47.0,47.0,30.21,SE,135,0.0,3.0,99,0.00,,,0.00,,2013-02-28 21:22:00,
2013-02-28 13:31:00,47.0,47.0,30.21,SSW,200,1.0,2.0,100,0.00,,,0.00,,2013-02-28 21:31:00,
2013-02-28 13:41:00,47.0,47.0,30.21,SSW,200,1.0,2.0,100,0.00,,,0.00,,2013-02-28 21:41:00,
2013-02-28 13:52:00,48.0,48.0,30.22,NE,36,0.0,4.0,99,0.00,,,0.00,,2013-02-28 21:52:00,
2013-02-28 14:01:00,48.0,48.0,30.22,SSE,163,0.0,6.0,99,0.00,,,0.00,,2013-02-28 22:01:00,
2013-02-28 14:11:00,48.0,48.0,30.22,SSE,163,0.0,6.0,99,0.00,,,0.00,,2013-02-28 22:11:00,
2013-02-28 14:21:00,48.0,48.0,30.22,SSE,163,0.0,3.0,99,0.00,,,0.00,,2013-02-28 22:21:00,
2013-02-28 14:31:00,48.0,48.0,30.22,SSE,163,1.0,4.0,99,0.00,,,0.00,,2013-02-28 22:31:00,
2013-02-28 14:41:00,48.0,48.0,30.22,SSE,163,1.0,4.0,99,0.00,,,0.00,,2013-02-28 22:41:00,
2013-02-28 14:52:00,49.0,49.0,30.23,SSE,159,0.0,5.0,100,0.00,,,0.00,,2013-02-28 22:52:00,
2013-02-28 15:01:00,49.0,49.0,30.24,SSE,159,0.0,3.0,100,0.00,,,0.00,,2013-02-28 23:01:00,
2013-02-28 15:11:00,49.0,49.0,30.24,SSE,159,0.0,2.0,99,0.00,,,0.00,,2013-02-28 23:11:00,
2013-02-28 15:21:00,49.0,49.0,30.24,SSE,159,0.0,2.0,99,0.00,,,0.00,,2013-02-28 23:21:00,
2013-02-28 15:31:00,49.0,49.0,30.25,SSE,159,0.0,2.0,99,0.00,,,0.00,,2013-02-28 23:31:00,
2013-02-28 15:41:00,49.0,49.0,30.25,SSE,159,0.0,2.0,99,0.00,,,0.00,,2013-02-28 23:41:00,
2013-02-28 15:52:00,49.0,49.0,30.25,East,97,0.0,4.0,99,0.00,,,0.00,,2013-02-28 23:52:00,
2013-02-28 16:01:00,49.0,49.0,30.25,WNW,302,0.0,4.0,99,0.00,,,0.00,,2013-03-01 00:01:00,
2013-02-28 16:11:00,49.0,49.0,30.25,WNW,302,0.0,4.0,99,0.00,,,0.00,,2013-03-01 00:11:00,
2013-02-28 16:22:00,50.0,50.0,30.25,South,185,0.0,3.0,99,0.00,,,0.00,,2013-03-01 00:22:00,
2013-02-28 16:32:00,50.0,50.0,30.25,South,185,0.0,4.0,99,0.00,,,0.00,,2013-03-01 00:32:00,
2013-02-28 16:41:00,50.0,50.0,30.25,South,185,0.0,4.0,99,0.00,,,0.00,,2013-03-01 00:41:00,
2013-02-28 16:52:00,50.0,50.0,30.25,SE,139,1.0,3.0,99,0.00,,,0.00,,2013-03-01 00:52:00,
2013-02-28 17:01:00,50.0,50.0,30.25,SSE,147,1.0,5.0,99,0.00,,,0.00,,2013-03-01 01:01:00,
2013-02-28 17:11:00,50.0,50.0,30.25,SSE,147,1.0,5.0,99,0.00,,,0.00,,2013-03-01 01:11:00,
2013-02-28 17:21:00,50.0,50.0,30.25,SE,143,1.0,4.0,99,0.00,,,0.00,,2013-03-01 01:21:00,
2013-02-28 17:31:00,50.0,49.0,30.24,SE,133,1.0,8.0,98,0.00,,,0.00,,2013-03-01 01:31:00,
2013-02-28 17:42:00,50.0,49.0,30.24,SE,133,1.0,8.0,98,0.00,,,0.00,,2013-03-01 01:42:00,
2013-02-28 17:52:00,50.0,50.0,30.23,SSE,147,1.0,5.0,99,0.00,,,0.00,,2013-03-01 01:52:00,
2013-02-28 18:01:00,50.0,50.0,30.23,SE,143,1.0,7.0,99,0.00,,,0.00,,2013-03-01 02:01:00,
2013-02-28 18:11:00,50.0,50.0,30.24,SE,140,1.0,6.0,99,0.00,,,0.00,,2013-03-01 02:11:00,
2013-02-28 18:21:00,50.0,50.0,30.24,SE,140,1.0,6.0,99,0.00,,,0.00,,2013-03-01 02:21:00,
2013-02-28 18:31:00,50.0,50.0,30.24,SE,134,2.0,8.0,99,0.00,,,0.00,,2013-03-01 02:31:00,
2013-02-28 18:41:00,50.0,50.0,30.24,SE,134,2.0,8.0,99,0.00,,,0.00,,2013-03-01 02:41:00,
2013-02-28 18:52:00,50.0,49.0,30.24,SE,132,1.0,11.0,98,0.00,,,0.00,,2013-03-01 02:52:00,
2013-02-28 19:01:00,50.0,50.0,30.26,SSE,151,1.0,5.0,99,0.00,,,0.00,,2013-03-01 03:01:00,
2013-02-28 19:11:00,50.0,50.0,30.26,SSE,151,1.0,5.0,99,0.00,,,0.00,,2013-03-01 03:11:00,
2013-02-28 19:21:00,50.0,50.0,30.25,SE,142,3.0,5.0,99,0.00,,,0.00,,2013-03-01 03:21:00,
2013-02-28 19:31:00,50.0,49.0,30.26,SE,134,1.0,2.0,98,0.00,,,0.00,,2013-03-01 03:31:00,
2013-02-28 19:41:00,50.0,49.0,30.26,SE,134,1.0,2.0,98,0.00,,,0.00,,2013-03-01 03:41:00,
2013-02-28 19:52:00,50.0,49.0,30.27,SSE,153,0.0,2.0,98,0.00,,,0.00,,2013-03-01 03:52:00,
2013-02-28 20:01:00,51.0,50.0,30.27,SSE,148,1.0,4.0,98,0.00,,,0.00,,2013-03-01 04:01:00,
2013-02-28 20:11:00,51.0,50.0,30.27,SSE,148,1.0,4.0,98,0.00,,,0.00,,2013-03-01 04:11:00,
2013-02-28 20:21:00,51.0,51.0,30.28,SSE,150,2.0,7.0,99,0.00,,,0.00,,2013-03-01 04:21:00,
2013-02-28 20:31:00,51.0,51.0,30.28,SSE,168,2.0,5.0,99,0.00,,,0.00,,2013-03-01 04:31:00,
2013-02-28 20:41:00,51.0,51.0,30.28,SSE,168,2.0,5.0,99,0.00,,,0.00,,2013-03-01 04:41:00,
2013-02-28 20:52:00,51.0,50.0,30.27,SE,137,1.0,8.0,98,0.00,,,0.00,,2013-03-01 04:52:00,
2013-02-28 21:01:00,51.0,50.0,30.28,SE,124,1.0,6.0,98,0.00,,,0.00,,2013-03-01 05:01:00,
2013-02-28 21:11:00,51.0,50.0,30.28,SE,124,1.0,6.0,98,0.00,,,0.00,,2013-03-01 05:11:00,
2013-02-28 21:22:00,51.0,50.0,30.28,SE,124,2.0,9.0,97,0.00,,,0.00,,2013-03-01 05:22:00,
2013-02-28 21:32:00,51.0,50.0,30.28,SSE,151,0.0,5.0,97,0.00,,,0.00,,2013-03-01 05:32:00,
2013-02-28 21:41:00,51.0,50.0,30.28,SSE,151,0.0,5.0,97,0.00,,,0.00,,2013-03-01 05:41:00,
2013-02-28 21:52:00,51.0,50.0,30.30,SSE,160,3.0,8.0,96,0.00,,,0.00,,2013-03-01 05:52:00,
2013-02-28 22:01:00,51.0,50.0,30.30,SSE,150,0.0,7.0,95,0.00,,,0.00,,2013-03-01 06:01:00,
2013-02-28 22:11:00,51.0,50.0,30.30,SSE,150,0.0,7.0,95,0.00,,,0.00,,2013-03-01 06:11:00,
2013-02-28 22:21:00,51.0,50.0,30.31,SE,143,1.0,3.0,96,0.00,,,0.00,,2013-03-01 06:21:00,
2013-02-28 22:31:00,51.0,50.0,30.30,SE,143,1.0,4.0,95,0.00,,,0.00,,2013-03-01 06:31:00,
2013-02-28 22:41:00,51.0,50.0,30.30,SE,143,1.0,4.0,95,0.00,,,0.00,,2013-03-01 06:41:00,
2013-02-28 22:52:00,51.0,50.0,30.32,SE,133,3.0,6.0,96,0.00,,,0.00,,2013-03-01 06:52:00,
2013-02-28 23:01:00,51.0,50.0,30.30,SE,140,0.0,5.0,96,0.00,,,0.00,,2013-03-01 07:01:00,
2013-02-28 23:11:00,51.0,50.0,30.30,SE,140,0.0,5.0,96,0.00,,,0.00,,2013-03-01 07:11:00,
2013-02-28 23:21:00,51.0,50.0,30.31,SE,142,1.0,8.0,96,0.00,,,0.00,,2013-03-01 07:21:00,
2013-02-28 23:31:00,51.0,50.0,30.30,SE,138,2.0,6.0,96,0.00,,,0.00,,2013-03-01 07:31:00,
2013-02-28 23:41:00,51.0,50.0,30.30,SE,138,2.0,6.0,96,0.00,,,0.00,,2013-03-01 07:41:00,
2013-02-28 23:52:00,51.0,50.0,30.30,SE,146,0.0,4.0,96,0.00,,,0.00,,2013-03-01 07:52:00,